�������r�C�����j�^�v���󋵏��
Date,Time,5�C6���@���p�r�C��,����,����(m/s)
2021/04/17,00:00,3.9,��,8.0
2021/04/17,00:10,3.8,��,7.8
2021/04/17,00:20,3.8,��,8.3
2021/04/17,00:30,3.9,��,8.7
2021/04/17,00:40,3.7,��,8.9
2021/04/17,00:50,3.8,��,8.3
2021/04/17,01:00,4.0,��,9.0
2021/04/17,01:10,3.8,��,7.8
2021/04/17,01:20,3.7,��,8.1
2021/04/17,01:30,3.8,��,8.9
2021/04/17,01:40,4.0,��,7.9
2021/04/17,01:50,4.0,��,9.4
2021/04/17,02:00,3.8,��,8.3
2021/04/17,02:10,3.9,��,8.9
2021/04/17,02:20,3.9,��,8.5
2021/04/17,02:30,3.9,��,8.0
2021/04/17,02:40,3.9,��쐼,7.6
2021/04/17,02:50,4.0,��쐼,7.4
2021/04/17,03:00,4.0,��,7.1
2021/04/17,03:10,4.0,��,7.4
2021/04/17,03:20,3.9,��,6.9
2021/04/17,03:30,3.9,��,7.1
2021/04/17,03:40,4.0,��,7.9
2021/04/17,03:50,3.9,��쐼,8.0
2021/04/17,04:00,3.9,��쐼,7.7
2021/04/17,04:10,3.9,��,7.1
2021/04/17,04:20,3.7,��,8.0
2021/04/17,04:30,4.0,��,7.6
2021/04/17,04:40,4.1,��,7.0
2021/04/17,04:50,4.0,��,7.6
2021/04/17,05:00,3.8,��,6.9
2021/04/17,05:10,3.8,��,5.6
2021/04/17,05:20,4.0,��,6.1
2021/04/17,05:30,4.0,��,6.4
2021/04/17,05:40,4.1,��,6.8
2021/04/17,05:50,4.0,��,5.4
2021/04/17,06:00,3.8,��,5.9
2021/04/17,06:10,4.0,��,6.0
2021/04/17,06:20,3.9,��,5.9
2021/04/17,06:30,4.0,��쐼,5.8
2021/04/17,06:40,4.0,��,4.8
2021/04/17,06:50,4.0,��,4.9
2021/04/17,07:00,3.9,��,4.7
2021/04/17,07:10,3.9,��,6.4
2021/04/17,07:20,3.8,��,8.0
2021/04/17,07:30,4.0,��쐼,7.2
2021/04/17,07:40,4.0,��쐼,7.0
2021/04/17,07:50,3.8,��,5.7
2021/04/17,08:00,4.0,��쓌,7.3
2021/04/17,08:10,3.8,��,7.6
2021/04/17,08:20,3.9,��,6.5
2021/04/17,08:30,4.0,��,6.3
2021/04/17,08:40,3.9,��,6.1
2021/04/17,08:50,4.0,��,5.1
2021/04/17,09:00,4.1,��,5.2
2021/04/17,09:10,3.7,��,6.0
2021/04/17,09:20,4.0,��쐼,6.9
2021/04/17,09:30,3.9,��쐼,6.4
2021/04/17,09:40,4.0,��쐼,6.4
2021/04/17,09:50,3.9,��쐼,6.1
2021/04/17,10:00,4.0,��쐼,6.0
2021/04/17,10:10,3.9,��쐼,10.5
2021/04/17,10:20,3.7,��쐼,6.4
2021/04/17,10:30,4.0,��쐼,8.0
2021/04/17,10:40,4.0,�쐼,5.2
2021/04/17,10:50,4.0,��쐼,4.5
2021/04/17,11:00,4.0,��,6.4
2021/04/17,11:10,3.9,��쓌,6.8
2021/04/17,11:20,3.9,��쓌,9.9
2021/04/17,11:30,3.9,��쓌,10.2
2021/04/17,11:40,4.0,��쓌,10.3
2021/04/17,11:50,3.9,��쓌,10.5
2021/04/17,12:00,4.1,��쓌,9.8
2021/04/17,12:10,3.8,��쓌,8.3
2021/04/17,12:20,3.9,��쓌,8.4
2021/04/17,12:30,3.8,��,7.1
2021/04/17,12:40,4.0,��,8.3
2021/04/17,12:50,3.9,��,7.8
2021/04/17,13:00,3.9,��쓌,8.5
2021/04/17,13:10,3.8,��,8.0
2021/04/17,13:20,3.8,��,8.7
2021/04/17,13:30,4.0,��,7.3
2021/04/17,13:40,3.7,��,10.2
2021/04/17,13:50,4.1,��,8.7
2021/04/17,14:00,4.1,��,10.5
2021/04/17,14:10,3.8,��쓌,10.2
2021/04/17,14:20,3.9,��쓌,10.6
2021/04/17,14:30,4.1,��,9.8
2021/04/17,14:40,4.1,��,10.5
2021/04/17,14:50,4.0,��,8.3
2021/04/17,15:00,3.8,��,9.4
2021/04/17,15:10,3.9,��,8.8
2021/04/17,15:20,3.8,��,8.9
2021/04/17,15:30,4.0,��,9.4
2021/04/17,15:40,3.8,��,7.8
2021/04/17,15:50,3.9,��쓌,8.6
2021/04/17,16:00,4.0,��쓌,7.9
2021/04/17,16:10,3.7,��쓌,9.9
2021/04/17,16:20,3.8,��,10.0
2021/04/17,16:30,3.9,��쓌,8.2
2021/04/17,16:40,3.9,��쓌,9.1
2021/04/17,16:50,4.0,��,7.5
2021/04/17,17:00,4.1,��,6.8
2021/04/17,17:10,3.9,��,6.1
2021/04/17,17:20,4.0,��쓌,9.3
2021/04/17,17:30,4.1,��,8.8
2021/04/17,17:40,4.0,��,8.6
2021/04/17,17:50,3.8,��,8.2
2021/04/17,18:00,3.9,��,9.6
2021/04/17,18:10,3.9,��,8.8
2021/04/17,18:20,3.8,��,8.8
2021/04/17,18:30,3.9,��,9.2
2021/04/17,18:40,3.9,��,9.0
2021/04/17,18:50,4.0,��,8.9
2021/04/17,19:00,4.0,��,10.5
2021/04/17,19:10,3.9,��,9.8
2021/04/17,19:20,3.9,��쓌,10.6
2021/04/17,19:30,3.9,��쓌,10.9
2021/04/17,19:40,3.8,��쓌,10.3
2021/04/17,19:50,4.0,��쓌,12.7
2021/04/17,20:00,4.0,��쓌,13.3
2021/04/17,20:10,4.0,��쓌,14.4
2021/04/17,20:20,3.9,��쓌,13.8
2021/04/17,20:30,4.0,��쓌,13.5
2021/04/17,20:40,4.0,��,10.3
2021/04/17,20:50,4.0,��쓌,10.2
2021/04/17,21:00,3.9,��쓌,11.9
2021/04/17,21:10,3.9,��,10.2
2021/04/17,21:20,3.9,��,10.8
2021/04/17,21:30,4.1,��쓌,12.0
2021/04/17,21:40,3.9,��쓌,13.8
2021/04/17,21:50,3.9,��쓌,15.7
2021/04/17,22:00,4.0,��쓌,14.9
2021/04/17,22:10,3.8,��쓌,13.8
2021/04/17,22:20,3.9,��,12.0
2021/04/17,22:30,3.7,��,12.4
2021/04/17,22:40,3.9,��쓌,13.3
2021/04/17,22:50,4.0,��쓌,14.1
2021/04/17,23:00,3.9,��쓌,14.1
2021/04/17,23:10,3.8,��쓌,13.6
2021/04/17,23:20,4.0,��쓌,12.4
2021/04/17,23:30,3.9,��쓌,12.4
2021/04/17,23:40,4.0,��쓌,11.6
2021/04/17,23:50,3.9,��쓌,10.2
